Showing default

POPSAT HIP 1, 40028

Orbit data source: Space-Track

POPSAT HIP 1, 40028 is a payload satellite owned by MicroSpace Rapid (SG) in SSO that was launched on Thu, 19 Jun 2014 UTC via a DNEPR launch vehicle from the Orenburg, Russia (OREN). Payload-class satellites include a variety of spacecraft equipped with specific instruments for various scientific and technological missions. These include communications satellites like Starlink; space stations such as the ISS; scientific satellites like the Hubble; Earth observation satellites from companies like Planet Labs, Umbra, and HawkEye 360; GPS; miniature CubeSats for education and research; and military/defense satellites.

Loading next visibility...
Identifier
40028, 2014-033U
Orbit
SSO
Country
Flag of SGSG / SING
Related business
Manufacturer
MicroSpace Rapid
Mission
Non-operational Commercial Technology
Bus & Motor
CUBESAT 3U, Unknown motor
Mass
~4 kg wet, ~4 kg dry
Launch date (UTC)
2014-06-19 (12 years ago)
Launch vehicle
DNEPR
Launch site
Orenburg, Russia (OREN)
Object type
Payload
Rocket body
Debris
Shape & HBR
Box, 0.2 m
Radar Cross Section
0.035 m², Medium (>0.1 m² and < 1m²)

Expand to show TLE details & history
Last TLE update: 6 hours ago

TLE from 6 hours ago
0 POPSAT HIP 1
1 40028U 14033U   26254.29464557  .00005223  00000-0  27438-3 0  9995
2 40028  98.0993 270.8787 0004858 258.4549 101.6137 15.16183558665846
Epoch: 2026-09-11T07:04Z
TLE epoch observation values (Epoch: 2026-09-11T07:04:17.377Z)
Latitude
0.00002°
Longitude
174.48623°
Altitude
521.128 km
Speed
7.602 km/s
True Right ascension
18h 03m 30s
True Declination
0° 00' 00"
Sunlit
Object was in daylight at epoch
Visualization orbit readout
Latitude
Unknown
Longitude
Unknown
Altitude
Unknown
Speed
Unknown
Apparent Right ascension
Unknown
Apparent Declination
Unknown
Sunlit
N/A
Visualization observer readout
Local Sidereal Time
05:45:12
Azimuth
Unknown
Elevation
Unknown
Doppler factor
Unknown
Orbital elements
Apogee altitude
517.738 km
Perigee altitude
511.041 km
Semi-major axis
6,892.527 km
Eccentricity
0.00049
Inclination
98.0993°
RAAN
270.8787°
Arg. of periapsis
258.4549°
True anomaly
101.66822°
Mean anomaly
101.6137°
Eccentric anomaly
101.64096°
Mean motion
3.79294 °/min
Orbital period
94.91 mins
BSTAR
0.00027438
Loading maneuver chart data...
Computing Atmospheric mass density...
Loading historical data...
Loading historical data...
Loading historical data...
Loading historical data...
Loading historical data...
Loading historical data...
Loading historical data...

Documentation

Showing up to 5 results
|